Location: Gilevgi
(36.8751°N, 30.0581°E)
Time: 04:23:36
(UTC+00:00)

Cosmos 2322 Rocket - Pass Details

Date: 11 December 2025
Orbit: 831 x 851 km, 71.0° (Epoch: 13 January)

Event Time Altitude Azimuth Distance (km) Brightness Sun altitude
Rises 17:22:00 0° 187° (S) 3,383 5.5 -30.9°
Reaches altitude 10° 17:24:28 10° 182° (S) 2,455 4.7 -31.4°
Enters shadow 17:25:14 14° 180° (S) 2,180 4.4 -31.5°
